Jerez de la Frontera, Spain

4:25 AM CEST on August 19, 2017 (GMT +0200)
Jerez

Weather History for LEJR - October, 2012

Change the Weather History Date:

Thursday, October 18, 2012

  Actual Average Record
Temperature  
Mean Temperature 65 °F -  
Max Temperature 75 °F 69 °F 90 °F (2016)
Min Temperature 55 °F 50 °F 46 °F (2002)
Growing Degree Days 15 (Base 50)    
Moisture  
Dew Point 58 °F    
Average Humidity 88    
Maximum Humidity 100    
Minimum Humidity 68    
Precipitation  
Precipitation 0.08 in 0.12 in - ()
Sea Level Pressure  
Sea Level Pressure 29.64 in    
Wind  
Wind Speed 8 mph ()    
Max Wind Speed 25 mph    
Max Gust Speed 40 mph    
Visibility 6.4 miles    
Events Rain    
Averages and records for this station are not official NWS values.
T = Trace of Precipitation, MM = Missing Value Source: Averaged Metar Reports

Daily Weather History Graph

Daily Weather History Graph

Search for Another Location

Airport or City:

Trip Planner

Search our weather history database for the weather conditions in past years. The results will help you decide how hot, cold, wet, or windy it might be!

Date:

Astronomy

Oct. 18, 2012 Rise Set
Actual Time 8:34 AM CEST 7:43 PM CEST
Civil Twilight 8:08 AM CEST 8:09 PM CEST
Nautical Twilight 7:38 AM CEST 8:39 PM CEST
Astronomical Twilight 7:08 AM CEST 9:09 PM CEST
Moon 11:56 AM CEST (10/18) 10:08 PM CEST (10/18)
Length of Visible Light 12h 01m
Length of Day
11h 08m
Waxing Crescent, 12% of the Moon is Illuminated
Oct 18
Waxing Crescent
Oct 22
First Quarter
Oct 29
Full
Nov 7
Last Quarter
Nov 13
New

Hourly Weather History & Observations

Time (CEST) Temp. Dew Point Humidity Pressure Visibility Wind Dir Wind Speed Gust Speed Precip Events Conditions
2:00 AM 60 °F 57 °F 87% 29.78 in 12 mi SSW 1.2 mph - -   Clear
5:00 AM 59.0 °F 55.4 °F 88% 29.68 in - Variable 1.2 mph - N/A   Clear
5:30 AM 59.0 °F 57.2 °F 94% 29.68 in - Variable 2.3 mph - N/A   Clear
6:00 AM 59.0 °F 55.4 °F 88% 29.68 in - South 3.5 mph - N/A   Clear
6:30 AM 57.2 °F 55.4 °F 94% 29.68 in - Variable 2.3 mph - N/A   Clear
7:00 AM 59.0 °F 57.2 °F 94% 29.68 in - South 3.5 mph - N/A   Clear
7:30 AM 59.0 °F 57.2 °F 94% 29.68 in - Variable 1.2 mph - N/A   Clear
8:00 AM 58 °F 57 °F 95% 29.68 in 19 mi SSE 3.5 mph - -   Scattered Clouds
8:00 AM 59.0 °F 57.2 °F 94% 29.65 in - South 3.5 mph - N/A   Clear
8:30 AM 60.8 °F 59.0 °F 94% 29.65 in - Variable 1.2 mph - N/A   Clear
9:00 AM 60.8 °F 59.0 °F 94% 29.65 in - South 4.6 mph - N/A   Clear
9:30 AM 62.6 °F 59.0 °F 88% 29.65 in - SSE 6.9 mph - N/A   Clear
10:00 AM 64.4 °F 59.0 °F 83% 29.65 in - South 10.4 mph - N/A   Clear
10:30 AM 66.2 °F 60.8 °F 83% 29.65 in - South 11.5 mph - N/A   Clear
11:00 AM 68.0 °F 62.6 °F 83% 29.65 in 6.2 mi South 13.8 mph - N/A   Partly Cloudy
11:30 AM 69.8 °F 62.6 °F 78% 29.65 in 6.2 mi South 16.1 mph - N/A   Partly Cloudy
12:00 PM 69.8 °F 62.6 °F 78% 29.62 in 6.2 mi South 18.4 mph - N/A   Partly Cloudy
12:30 PM 71.6 °F 62.6 °F 73% 29.62 in 6.2 mi South 17.3 mph - N/A   Partly Cloudy
1:00 PM 71.6 °F 64.4 °F 78% 29.62 in 6.2 mi South 20.7 mph - N/A   Scattered Clouds
1:30 PM 73.4 °F 62.6 °F 69% 29.59 in 6.2 mi South 19.6 mph - N/A   Scattered Clouds
2:00 PM 72 °F 64 °F 68% 29.60 in 19 mi South 19.6 mph - -   Partly Cloudy
2:00 PM 71.6 °F 62.6 °F 73% 29.59 in 6.2 mi South 19.6 mph - N/A   Scattered Clouds
2:30 PM 73.4 °F 62.6 °F 69% 29.56 in 6.2 mi South 19.6 mph - N/A   Mostly Cloudy
3:00 PM 71.6 °F 62.6 °F 73% 29.56 in 6.2 mi South 24.2 mph 35.7 mph N/A   Mostly Cloudy
3:30 PM 71.6 °F 62.6 °F 73% 29.53 in 6.2 mi South 25.3 mph 38.0 mph N/A   Mostly Cloudy
4:00 PM 71.6 °F 62.6 °F 73% 29.53 in 6.2 mi South 25.3 mph 40.3 mph N/A   Mostly Cloudy
4:14 PM 60.8 °F 59.0 °F 94% 29.56 in 4.3 mi WNW 16.1 mph - N/A Rain Rain Showers
4:30 PM 59.0 °F 57.2 °F 94% 29.56 in 4.3 mi WNW 15.0 mph - N/A   Mostly Cloudy
4:35 PM 59.0 °F 57.2 °F 94% 29.56 in 2.5 mi WNW 15.0 mph - N/A   Mostly Cloudy
5:00 PM 59.0 °F 57.2 °F 94% 29.59 in 3.7 mi West 11.5 mph 24.2 mph N/A   Mostly Cloudy
5:30 PM 59.0 °F 57.2 °F 94% 29.59 in 6.2 mi WNW 12.7 mph - N/A   Mostly Cloudy
6:00 PM 59.0 °F 55.4 °F 88% 29.62 in 6.2 mi WNW 13.8 mph - N/A   Mostly Cloudy
6:30 PM 57.2 °F 55.4 °F 94% 29.62 in 6.2 mi NW 15.0 mph - N/A   Mostly Cloudy
7:00 PM 57.2 °F 55.4 °F 94% 29.65 in 6.2 mi WNW 12.7 mph - N/A   Mostly Cloudy
7:30 PM 57.2 °F 53.6 °F 88% 29.65 in 6.2 mi NNW 12.7 mph - N/A   Mostly Cloudy
7:44 PM 55.4 °F 53.6 °F 94% 29.65 in 2.5 mi NNW 8.1 mph - N/A Rain Light Rain
8:00 PM 56 °F 54 °F 92% 29.68 in 2 mi North 3.5 mph - - Rain Light Rain
8:00 PM 55.4 °F 55.4 °F 100% 29.68 in 2.5 mi NNW 3.5 mph - N/A Rain Light Rain
8:30 PM 55.4 °F 55.4 °F 100% 29.68 in 4.3 mi East 3.5 mph - N/A Rain Light Rain
9:00 PM 55.4 °F 55.4 °F 100% 29.71 in 5.6 mi Variable 1.2 mph - N/A   Light Drizzle
9:30 PM 55.4 °F 55.4 °F 100% 29.71 in 6.2 mi Variable 2.3 mph - N/A   Partly Cloudy
10:00 PM 55.4 °F 55.4 °F 100% 29.71 in 6.2 mi SSW 5.8 mph - N/A   Partly Cloudy
10:30 PM 55.4 °F 55.4 °F 100% 29.74 in 6.2 mi SSW 4.6 mph - N/A   Partly Cloudy
11:00 PM 55.4 °F 55.4 °F 100% 29.74 in 6.2 mi Variable 2.3 mph - N/A   Partly Cloudy